Brighton, MI

6:57 AM EST on February 06, 2016 (GMT -0500)
Fonda Lake | | Change Station
CLOSE
Current Station
Personal Weather Station
Location: Brighton, MI
Elevation: 897 ft
Nearby Weather Stations

Elev 897 ft 42.51 °N, 83.75 °W | Updated 1 minute ago

Partly Cloudy
Partly Cloudy
22.3 °F
Feels Like 22 °F
N
2.3
Wind Variable Wind from SW
Gusts 4.9 mph

Today
High -- | Low -- °F
--% Chance of Precip.
Yesterday
High -- | Low -- °F
Precip. -- in
Pressure 30.25 in
Visibility 7.0 miles
Clouds Overcast 7000 ft
Windchill 22 °F
Dew Point 18 °F
Humidity 84%
Rainfall 0.00 in
Snow Depth Not available.
7:43 AM 5:54 PM
Waning Crescent, 6% visible
METAR KOZW 061155Z AUTO 24006KT 7SM OVC070 M04/M05 A3025 RMK AO2 T10421055 11030 21056
Pressure 30.25 in
Visibility 7.0 miles
Clouds Overcast 7000 ft
Windchill 22 °F
Dew Point 18 °F
Humidity 84%
Rainfall 0.00 in
Snow Depth Not available.
7:43 AM 5:54 PM
Waning Crescent, 6% visible
METAR KOZW 061155Z AUTO 24006KT 7SM OVC070 M04/M05 A3025 RMK AO2 T10421055 11030 21056

10-Day Weather Forecast

Almanac

Astronomy

Feb. 06, 2016 Rise Set
Actual Time
Civil Twilight
Nautical Twilight
Astronomical Twilight
Moon
Length of Visible Light
Length of Day
Tomorrow will be .
, % of the Moon is Illuminated

Today's Extremes

State Highs State Lows

Community

WunderPhotos

Upload Photos

1,890,944 photos uploaded!

WunderBlog® & News

Nearby

Air Quality

  Air Quality AQ Index Pollutant
Not available.

Snow Depth

Station Depth Elevation

Earthquake Activity

City Distance Mag. Time & Date
Minimum magnitude displayed is 2.5.

Coastal Water Temperatures

Place Temperature

Stations

Nearby Weather Stations

Station Location Temp. Windchill Dew Point Humidity Wind Precip. Elev Updated Type
                   

Watches & Warnings

There are currently no watches in effect.